Time,TemperatureF,DewpointF,PressureIn,WindDirection,WindDirectionDegrees,WindSpeedMPH,WindSpeedGustMPH,Humidity,HourlyPrecipIn,Conditions,Clouds,dailyrainin,SoftwareType,DateUTC
2013-01-15 00:00:00,49.8,45.2,29.92,North,355,2.0,3.0,84,0.00,,,0.31,VWS V14.01,2013-01-14 23:00:00,
2013-01-15 00:02:00,49.8,45.2,29.92,North,355,2.0,3.0,84,0.00,,,0.31,VWS V14.01,2013-01-14 23:02:00,
2013-01-15 00:07:00,49.7,45.1,29.92,North,355,1.0,2.0,84,0.00,,,0.00,VWS V14.01,2013-01-14 23:07:00,
2013-01-15 00:10:00,49.6,45.0,29.92,North,355,2.0,3.0,84,0.00,,,0.00,VWS V14.01,2013-01-14 23:10:00,
2013-01-15 00:12:00,49.6,45.3,29.92,North,355,3.0,3.0,85,0.00,,,0.00,VWS V14.01,2013-01-14 23:12:00,
2013-01-15 00:17:00,49.4,45.1,29.91,North,5,3.0,5.0,85,0.00,,,0.00,VWS V14.01,2013-01-14 23:17:00,
2013-01-15 00:20:00,49.3,45.0,29.91,NNE,16,3.0,5.0,85,0.00,,,0.00,VWS V14.01,2013-01-14 23:20:00,
2013-01-15 00:22:00,49.3,45.0,29.91,NNE,16,4.0,5.0,85,0.00,,,0.00,VWS V14.01,2013-01-14 23:22:00,
2013-01-15 00:27:00,49.4,45.1,29.91,NNE,16,2.0,3.0,85,0.00,,,0.00,VWS V14.01,2013-01-14 23:27:00,
2013-01-15 00:30:00,49.3,45.0,29.91,NNE,16,0.0,3.0,85,0.00,,,0.00,VWS V14.01,2013-01-14 23:30:00,
2013-01-15 00:32:00,49.4,45.1,29.91,NNE,16,0.0,3.0,85,0.00,,,0.00,VWS V14.01,2013-01-14 23:32:00,
2013-01-15 00:37:00,49.3,45.0,29.91,NNE,16,2.0,3.0,85,0.00,,,0.00,VWS V14.01,2013-01-14 23:37:00,
2013-01-15 00:40:00,49.2,44.9,29.91,NNE,16,2.0,3.0,85,0.00,,,0.00,VWS V14.01,2013-01-14 23:40:00,
2013-01-15 00:42:00,49.3,45.0,29.91,NNE,16,1.0,3.0,85,0.00,,,0.00,VWS V14.01,2013-01-14 23:42:00,
2013-01-15 00:47:00,49.2,44.9,29.91,NNE,16,2.0,2.0,85,0.00,,,0.00,VWS V14.01,2013-01-14 23:47:00,
2013-01-15 00:50:00,48.8,44.5,29.92,NE,40,4.0,4.0,85,0.01,,,0.01,VWS V14.01,2013-01-14 23:50:00,
2013-01-15 00:52:00,48.9,44.6,29.91,NE,38,4.0,4.0,85,0.01,,,0.01,VWS V14.01,2013-01-14 23:52:00,
2013-01-15 00:57:00,48.8,44.8,29.92,NE,40,3.0,5.0,86,0.01,,,0.01,VWS V14.01,2013-01-14 23:57:00,
2013-01-15 01:00:00,48.9,44.9,29.91,NE,40,4.0,5.0,86,0.01,,,0.01,VWS V14.01,2013-01-15 00:00:00,
2013-01-15 01:02:00,48.7,44.7,29.91,NE,40,3.0,5.0,86,0.01,,,0.01,VWS V14.01,2013-01-15 00:02:00,
2013-01-15 01:07:00,49.2,45.2,29.91,NE,40,3.0,4.0,86,0.01,,,0.01,VWS V14.01,2013-01-15 00:07:00,
2013-01-15 01:10:00,49.2,45.2,29.91,NE,42,0.0,4.0,86,0.01,,,0.01,VWS V14.01,2013-01-15 00:10:00,
2013-01-15 01:12:00,49.3,45.3,29.91,NE,42,3.0,4.0,86,0.01,,,0.01,VWS V14.01,2013-01-15 00:12:00,
2013-01-15 01:18:00,48.9,44.6,29.91,NE,42,2.0,2.0,85,0.01,,,0.01,VWS V14.01,2013-01-15 00:18:00,
2013-01-15 01:20:00,48.0,44.0,29.91,NE,42,3.0,4.0,86,0.01,,,0.01,VWS V14.01,2013-01-15 00:20:00,
2013-01-15 01:23:00,48.0,44.0,29.91,NE,42,4.0,4.0,86,0.01,,,0.01,VWS V14.01,2013-01-15 00:23:00,
2013-01-15 01:28:00,48.1,44.4,29.91,ENE,67,5.0,7.0,87,0.01,,,0.01,VWS V14.01,2013-01-15 00:28:00,
2013-01-15 01:30:00,48.4,44.7,29.91,ENE,69,4.0,7.0,87,0.01,,,0.01,VWS V14.01,2013-01-15 00:30:00,
2013-01-15 01:33:00,48.4,44.7,29.91,ENE,69,3.0,7.0,87,0.01,,,0.01,VWS V14.01,2013-01-15 00:33:00,
2013-01-15 01:38:00,48.7,45.0,29.91,ENE,69,3.0,4.0,87,0.01,,,0.01,VWS V14.01,2013-01-15 00:38:00,
2013-01-15 01:40:00,48.7,44.7,29.92,ENE,69,2.0,4.0,86,0.01,,,0.01,VWS V14.01,2013-01-15 00:40:00,
2013-01-15 01:43:00,48.7,44.7,29.92,ENE,69,1.0,4.0,86,0.01,,,0.01,VWS V14.01,2013-01-15 00:43:00,
2013-01-15 01:48:00,48.7,44.7,29.92,ENE,69,3.0,4.0,86,0.01,,,0.01,VWS V14.01,2013-01-15 00:48:00,
2013-01-15 01:50:00,48.9,45.2,29.92,ENE,69,3.0,4.0,87,0.01,,,0.01,VWS V14.01,2013-01-15 00:50:00,
2013-01-15 01:53:00,48.9,45.2,29.92,ENE,69,3.0,4.0,87,0.01,,,0.01,VWS V14.01,2013-01-15 00:53:00,
2013-01-15 01:58:00,49.0,45.3,29.92,ENE,69,3.0,4.0,87,0.00,,,0.01,VWS V14.01,2013-01-15 00:58:00,
2013-01-15 02:00:00,49.1,45.4,29.92,ENE,72,3.0,5.0,87,0.00,,,0.01,VWS V14.01,2013-01-15 01:00:00,
2013-01-15 02:03:00,49.1,45.4,29.92,ENE,70,5.0,5.0,87,0.00,,,0.01,VWS V14.01,2013-01-15 01:03:00,
2013-01-15 02:08:00,49.2,45.2,29.92,ENE,72,1.0,3.0,86,0.00,,,0.01,VWS V14.01,2013-01-15 01:08:00,
2013-01-15 02:10:00,49.4,45.4,29.91,ENE,73,3.0,5.0,86,0.00,,,0.01,VWS V14.01,2013-01-15 01:10:00,
2013-01-15 02:13:00,49.4,45.4,29.92,ENE,73,2.0,4.0,86,0.00,,,0.01,VWS V14.01,2013-01-15 01:13:00,
2013-01-15 02:18:00,49.4,45.4,29.92,East,80,5.0,5.0,86,0.00,,,0.01,VWS V14.01,2013-01-15 01:18:00,
2013-01-15 02:20:00,49.5,45.5,29.92,East,88,7.0,7.0,86,0.00,,,0.01,VWS V14.01,2013-01-15 01:20:00,
2013-01-15 02:23:00,49.4,45.4,29.92,East,84,3.0,6.0,86,0.00,,,0.01,VWS V14.01,2013-01-15 01:23:00,
2013-01-15 02:28:00,49.4,45.4,29.91,East,86,5.0,7.0,86,0.00,,,0.01,VWS V14.01,2013-01-15 01:28:00,
2013-01-15 02:30:00,49.1,45.1,29.91,East,88,5.0,8.0,86,0.00,,,0.01,VWS V14.01,2013-01-15 01:30:00,
2013-01-15 02:33:00,49.1,45.1,29.91,East,87,6.0,8.0,86,0.00,,,0.01,VWS V14.01,2013-01-15 01:33:00,
2013-01-15 02:38:00,48.8,44.8,29.91,East,90,5.0,7.0,86,0.00,,,0.01,VWS V14.01,2013-01-15 01:38:00,
2013-01-15 02:40:00,48.6,44.6,29.91,ENE,78,5.0,8.0,86,0.00,,,0.01,VWS V14.01,2013-01-15 01:40:00,
2013-01-15 02:43:00,48.6,44.6,29.91,East,79,3.0,8.0,86,0.00,,,0.01,VWS V14.01,2013-01-15 01:43:00,
2013-01-15 02:48:00,48.5,44.8,29.91,East,90,5.0,8.0,87,0.00,,,0.01,VWS V14.01,2013-01-15 01:48:00,
2013-01-15 02:50:00,48.4,44.7,29.91,East,91,5.0,8.0,87,0.00,,,0.01,VWS V14.01,2013-01-15 01:50:00,
2013-01-15 02:53:00,48.5,44.8,29.91,East,91,6.0,8.0,87,0.00,,,0.01,VWS V14.01,2013-01-15 01:53:00,
2013-01-15 02:58:00,48.4,44.7,29.91,East,90,3.0,7.0,87,0.00,,,0.01,VWS V14.01,2013-01-15 01:58:00,
2013-01-15 03:00:00,48.7,44.7,29.92,East,91,5.0,7.0,86,0.00,,,0.01,VWS V14.01,2013-01-15 02:00:00,
2013-01-15 03:03:00,48.7,44.7,29.92,East,91,1.0,7.0,86,0.00,,,0.01,VWS V14.01,2013-01-15 02:03:00,
2013-01-15 03:08:00,49.2,45.2,29.91,ESE,103,5.0,7.0,86,0.00,,,0.01,VWS V14.01,2013-01-15 02:08:00,
2013-01-15 03:10:00,49.4,45.4,29.91,ESE,103,4.0,9.0,86,0.00,,,0.01,VWS V14.01,2013-01-15 02:10:00,
2013-01-15 03:13:00,49.4,45.4,29.91,ESE,103,7.0,9.0,86,0.00,,,0.01,VWS V14.01,2013-01-15 02:13:00,
2013-01-15 03:18:00,49.5,45.2,29.90,ESE,105,5.0,9.0,85,0.00,,,0.01,VWS V14.01,2013-01-15 02:18:00,
2013-01-15 03:20:00,49.6,45.3,29.91,ESE,105,5.0,9.0,85,0.00,,,0.01,VWS V14.01,2013-01-15 02:20:00,
2013-01-15 03:23:00,49.6,45.3,29.91,ESE,106,7.0,9.0,85,0.00,,,0.01,VWS V14.01,2013-01-15 02:23:00,
2013-01-15 03:28:00,49.6,45.3,29.91,ESE,108,2.0,8.0,85,0.00,,,0.01,VWS V14.01,2013-01-15 02:28:00,
2013-01-15 03:30:00,49.6,45.3,29.91,ESE,107,7.0,8.0,85,0.00,,,0.01,VWS V14.01,2013-01-15 02:30:00,
2013-01-15 03:33:00,49.6,45.3,29.91,ESE,109,3.0,8.0,85,0.00,,,0.01,VWS V14.01,2013-01-15 02:33:00,
2013-01-15 03:38:00,49.6,45.3,29.91,ESE,102,3.0,7.0,85,0.00,,,0.01,VWS V14.01,2013-01-15 02:38:00,
2013-01-15 03:40:00,49.6,45.3,29.91,East,98,5.0,7.0,85,0.00,,,0.01,VWS V14.01,2013-01-15 02:40:00,
2013-01-15 03:43:00,49.6,45.3,29.91,East,98,6.0,7.0,85,0.00,,,0.01,VWS V14.01,2013-01-15 02:43:00,
2013-01-15 03:49:00,49.7,45.4,29.91,East,98,2.0,7.0,85,0.00,,,0.01,VWS V14.01,2013-01-15 02:49:00,
2013-01-15 03:50:00,49.8,45.8,29.91,East,98,5.0,7.0,86,0.00,,,0.01,VWS V14.01,2013-01-15 02:50:00,
2013-01-15 03:54:00,49.8,45.8,29.91,East,98,6.0,7.0,86,0.00,,,0.01,VWS V14.01,2013-01-15 02:54:00,
2013-01-15 03:58:00,50.0,46.0,29.90,East,98,3.0,7.0,86,0.00,,,0.01,VWS V14.01,2013-01-15 02:58:00,
2013-01-15 04:00:00,50.0,45.7,29.90,East,98,2.0,7.0,85,0.00,,,0.01,VWS V14.01,2013-01-15 03:00:00,
2013-01-15 04:03:00,50.0,45.7,29.90,East,98,3.0,7.0,85,0.00,,,0.01,VWS V14.01,2013-01-15 03:03:00,
2013-01-15 04:08:00,50.0,46.0,29.90,ESE,117,2.0,8.0,86,0.00,,,0.01,VWS V14.01,2013-01-15 03:08:00,
2013-01-15 04:10:00,49.9,45.9,29.90,ESE,123,5.0,8.0,86,0.00,,,0.01,VWS V14.01,2013-01-15 03:10:00,
2013-01-15 04:14:00,50.0,46.0,29.90,ESE,123,4.0,8.0,86,0.00,,,0.01,VWS V14.01,2013-01-15 03:14:00,
2013-01-15 04:19:00,50.0,46.0,29.90,ESE,122,5.0,8.0,86,0.00,,,0.01,VWS V14.01,2013-01-15 03:19:00,
2013-01-15 04:20:00,50.0,46.0,29.90,ESE,117,2.0,8.0,86,0.00,,,0.01,VWS V14.01,2013-01-15 03:20:00,
2013-01-15 04:24:00,50.0,46.0,29.90,ESE,117,1.0,8.0,86,0.00,,,0.01,VWS V14.01,2013-01-15 03:24:00,
2013-01-15 04:29:00,49.9,45.9,29.90,ESE,117,2.0,4.0,86,0.00,,,0.01,VWS V14.01,2013-01-15 03:29:00,
2013-01-15 04:30:00,49.8,45.8,29.90,ESE,117,4.0,4.0,86,0.00,,,0.01,VWS V14.01,2013-01-15 03:30:00,
2013-01-15 04:34:00,49.8,45.8,29.90,ESE,117,4.0,4.0,86,0.00,,,0.01,VWS V14.01,2013-01-15 03:34:00,
2013-01-15 04:39:00,49.8,45.8,29.89,ESE,117,3.0,5.0,86,0.00,,,0.01,VWS V14.01,2013-01-15 03:39:00,
2013-01-15 04:40:00,49.8,45.8,29.89,ESE,117,1.0,5.0,86,0.00,,,0.01,VWS V14.01,2013-01-15 03:40:00,
2013-01-15 04:44:00,49.8,45.8,29.89,ESE,117,0.0,5.0,86,0.00,,,0.01,VWS V14.01,2013-01-15 03:44:00,
2013-01-15 04:49:00,50.0,46.0,29.89,ESE,117,3.0,4.0,86,0.00,,,0.01,VWS V14.01,2013-01-15 03:49:00,
2013-01-15 04:50:00,50.0,46.0,29.90,SW,234,9.0,10.0,86,0.00,,,0.01,VWS V14.01,2013-01-15 03:50:00,
2013-01-15 04:54:00,50.0,46.0,29.90,SW,234,6.0,9.0,86,0.00,,,0.01,VWS V14.01,2013-01-15 03:54:00,
2013-01-15 04:59:00,50.2,46.2,29.89,WNW,296,10.0,12.0,86,0.00,,,0.01,VWS V14.01,2013-01-15 03:59:00,
2013-01-15 05:00:00,49.9,46.8,29.90,West,277,7.0,12.0,89,0.00,,,0.01,VWS V14.01,2013-01-15 04:00:00,
2013-01-15 05:04:00,49.9,46.8,29.90,West,277,7.0,12.0,89,0.00,,,0.01,VWS V14.01,2013-01-15 04:04:00,
2013-01-15 05:09:00,49.5,45.5,29.90,WNW,293,4.0,9.0,86,0.00,,,0.01,VWS V14.01,2013-01-15 04:09:00,
2013-01-15 05:10:00,49.1,45.1,29.90,NNW,337,5.0,10.0,86,0.00,,,0.01,VWS V14.01,2013-01-15 04:10:00,
2013-01-15 05:14:00,49.1,45.1,29.90,NNW,338,4.0,5.0,86,0.00,,,0.01,VWS V14.01,2013-01-15 04:14:00,
2013-01-15 05:19:00,48.9,45.2,29.91,North,5,5.0,9.0,87,0.00,,,0.01,VWS V14.01,2013-01-15 04:19:00,
2013-01-15 05:20:00,48.1,44.1,29.91,North,9,11.0,15.0,86,0.00,,,0.01,VWS V14.01,2013-01-15 04:20:00,
2013-01-15 05:24:00,48.1,44.1,29.91,NNE,16,8.0,11.0,86,0.00,,,0.01,VWS V14.01,2013-01-15 04:24:00,
2013-01-15 05:29:00,47.0,43.3,29.91,North,5,13.0,14.0,87,0.00,,,0.01,VWS V14.01,2013-01-15 04:29:00,
2013-01-15 05:30:00,46.2,42.8,29.90,North,5,11.0,16.0,88,0.00,,,0.01,VWS V14.01,2013-01-15 04:30:00,
2013-01-15 05:34:00,46.2,42.8,29.90,North,5,11.0,16.0,88,0.00,,,0.01,VWS V14.01,2013-01-15 04:34:00,
2013-01-15 05:39:00,45.8,42.5,29.90,North,11,12.0,14.0,88,0.00,,,0.01,VWS V14.01,2013-01-15 04:39:00,
2013-01-15 05:40:00,45.4,42.3,29.90,NNE,26,11.0,16.0,89,0.00,,,0.01,VWS V14.01,2013-01-15 04:40:00,
2013-01-15 05:44:00,45.4,42.3,29.90,NNE,26,11.0,16.0,89,0.00,,,0.01,VWS V14.01,2013-01-15 04:44:00,
2013-01-15 05:49:00,45.1,42.1,29.90,NNE,23,11.0,14.0,89,0.00,,,0.01,VWS V14.01,2013-01-15 04:49:00,
2013-01-15 05:50:00,45.0,42.2,29.90,NNE,27,7.0,15.0,90,0.00,,,0.01,VWS V14.01,2013-01-15 04:50:00,
2013-01-15 05:54:00,45.0,42.0,29.90,NNE,32,11.0,15.0,89,0.00,,,0.01,VWS V14.01,2013-01-15 04:54:00,
2013-01-15 05:59:00,44.9,42.2,29.90,NNE,32,15.0,19.0,90,0.00,,,0.01,VWS V14.01,2013-01-15 04:59:00,
2013-01-15 06:00:00,44.9,42.2,29.90,NE,35,12.0,19.0,90,0.00,,,0.01,VWS V14.01,2013-01-15 05:00:00,
2013-01-15 06:01:00,44.9,42.2,29.90,NNE,13,10.0,19.0,90,0.00,,,0.01,VWS V14.01,2013-01-15 05:01:00,
2013-01-15 06:02:00,44.8,42.0,29.90,NNE,27,9.0,19.0,90,0.00,,,0.01,VWS V14.01,2013-01-15 05:02:00,
2013-01-15 06:07:00,44.7,42.0,29.90,NE,42,9.0,17.0,90,0.00,,,0.01,VWS V14.01,2013-01-15 05:07:00,
2013-01-15 06:10:00,44.5,41.8,29.91,NE,35,10.0,17.0,90,0.00,,,0.01,VWS V14.01,2013-01-15 05:10:00,
2013-01-15 06:12:00,44.6,41.8,29.91,NE,35,10.0,17.0,90,0.00,,,0.01,VWS V14.01,2013-01-15 05:12:00,
2013-01-15 06:17:00,44.5,41.8,29.91,NNE,26,11.0,14.0,90,0.00,,,0.01,VWS V14.01,2013-01-15 05:17:00,
2013-01-15 06:20:00,44.4,41.7,29.90,NE,38,6.0,14.0,90,0.00,,,0.01,VWS V14.01,2013-01-15 05:20:00,
2013-01-15 06:22:00,44.4,41.7,29.91,NE,48,2.0,14.0,90,0.00,,,0.01,VWS V14.01,2013-01-15 05:22:00,
2013-01-15 06:27:00,44.4,41.7,29.90,NE,42,5.0,12.0,90,0.00,,,0.01,VWS V14.01,2013-01-15 05:27:00,
2013-01-15 06:30:00,44.4,41.7,29.90,NNE,24,8.0,12.0,90,0.00,,,0.01,VWS V14.01,2013-01-15 05:30:00,
2013-01-15 06:32:00,44.4,41.7,29.90,NNE,25,8.0,12.0,90,0.00,,,0.01,VWS V14.01,2013-01-15 05:32:00,
2013-01-15 06:37:00,44.4,41.4,29.90,NNE,29,6.0,11.0,89,0.00,,,0.01,VWS V14.01,2013-01-15 05:37:00,
2013-01-15 06:40:00,44.9,41.9,29.90,NNE,14,8.0,11.0,89,0.00,,,0.01,VWS V14.01,2013-01-15 05:40:00,
2013-01-15 06:42:00,44.8,41.8,29.90,NE,34,5.0,11.0,89,0.00,,,0.01,VWS V14.01,2013-01-15 05:42:00,
2013-01-15 06:47:00,44.8,41.8,29.90,North,9,5.0,8.0,89,0.00,,,0.01,VWS V14.01,2013-01-15 05:47:00,
2013-01-15 06:50:00,44.8,41.8,29.90,North,11,5.0,8.0,89,0.00,,,0.01,VWS V14.01,2013-01-15 05:50:00,
2013-01-15 06:52:00,44.8,41.8,29.90,NNE,17,7.0,8.0,89,0.00,,,0.01,VWS V14.01,2013-01-15 05:52:00,
2013-01-15 06:57:00,44.9,41.9,29.89,NNE,22,4.0,7.0,89,0.00,,,0.01,VWS V14.01,2013-01-15 05:57:00,
2013-01-15 07:00:00,45.4,42.3,29.90,NNE,30,6.0,7.0,89,0.00,,,0.01,VWS V14.01,2013-01-15 06:00:00,
2013-01-15 07:02:00,45.3,42.3,29.89,NNE,31,5.0,7.0,89,0.00,,,0.01,VWS V14.01,2013-01-15 06:02:00,
2013-01-15 07:07:00,45.7,42.7,29.89,NNE,33,6.0,6.0,89,0.00,,,0.01,VWS V14.01,2013-01-15 06:07:00,
2013-01-15 07:10:00,46.3,43.0,29.90,NNE,33,4.0,6.0,88,0.00,,,0.01,VWS V14.01,2013-01-15 06:10:00,
2013-01-15 07:12:00,46.2,43.1,29.90,NNE,33,4.0,6.0,89,0.00,,,0.01,VWS V14.01,2013-01-15 06:12:00,
2013-01-15 07:17:00,46.8,43.4,29.89,NE,39,6.0,6.0,88,0.00,,,0.01,VWS V14.01,2013-01-15 06:17:00,
2013-01-15 07:20:00,47.7,44.0,29.89,NE,50,4.0,6.0,87,0.00,,,0.01,VWS V14.01,2013-01-15 06:20:00,
2013-01-15 07:22:00,47.5,43.8,29.89,NE,50,3.0,6.0,87,0.00,,,0.01,VWS V14.01,2013-01-15 06:22:00,
2013-01-15 07:27:00,48.0,44.0,29.89,NE,50,0.0,4.0,86,0.00,,,0.01,VWS V14.01,2013-01-15 06:27:00,
2013-01-15 07:30:00,48.0,44.0,29.89,ENE,57,2.0,4.0,86,0.00,,,0.01,VWS V14.01,2013-01-15 06:30:00,
2013-01-15 07:32:00,47.8,43.8,29.89,ENE,57,2.0,4.0,86,0.00,,,0.01,VWS V14.01,2013-01-15 06:32:00,
2013-01-15 07:37:00,48.2,44.2,29.89,ENE,57,0.0,3.0,86,0.00,,,0.01,VWS V14.01,2013-01-15 06:37:00,
2013-01-15 07:40:00,47.9,43.6,29.89,ENE,57,1.0,3.0,85,0.00,,,0.01,VWS V14.01,2013-01-15 06:40:00,
2013-01-15 07:42:00,47.9,43.9,29.89,ENE,57,2.0,3.0,86,0.00,,,0.01,VWS V14.01,2013-01-15 06:42:00,
2013-01-15 07:47:00,47.8,43.5,29.89,ENE,57,3.0,3.0,85,0.00,,,0.01,VWS V14.01,2013-01-15 06:47:00,
2013-01-15 07:50:00,47.5,43.2,29.89,ENE,57,3.0,3.0,85,0.00,,,0.01,VWS V14.01,2013-01-15 06:50:00,
2013-01-15 07:52:00,47.6,43.3,29.89,ENE,57,2.0,3.0,85,0.00,,,0.01,VWS V14.01,2013-01-15 06:52:00,
2013-01-15 07:57:00,47.5,43.2,29.89,ENE,57,1.0,3.0,85,0.00,,,0.01,VWS V14.01,2013-01-15 06:57:00,
2013-01-15 08:00:00,47.1,42.8,29.89,ENE,57,3.0,3.0,85,0.00,,,0.01,VWS V14.01,2013-01-15 07:00:00,
2013-01-15 08:02:00,47.3,43.0,29.89,ENE,57,3.0,3.0,85,0.00,,,0.01,VWS V14.01,2013-01-15 07:02:00,
2013-01-15 08:07:00,47.1,42.8,29.89,ENE,57,2.0,3.0,85,0.00,,,0.01,VWS V14.01,2013-01-15 07:07:00,
2013-01-15 08:10:00,47.0,42.7,29.89,ENE,57,4.0,4.0,85,0.00,,,0.01,VWS V14.01,2013-01-15 07:10:00,
2013-01-15 08:12:00,47.1,42.8,29.89,ENE,57,2.0,3.0,85,0.00,,,0.01,VWS V14.01,2013-01-15 07:12:00,
2013-01-15 08:17:00,47.1,42.8,29.88,ENE,57,4.0,5.0,85,0.00,,,0.01,VWS V14.01,2013-01-15 07:17:00,
2013-01-15 08:20:00,47.0,42.7,29.89,NE,49,4.0,6.0,85,0.00,,,0.01,VWS V14.01,2013-01-15 07:20:00,
2013-01-15 08:22:00,47.1,42.8,29.88,NE,51,4.0,6.0,85,0.00,,,0.01,VWS V14.01,2013-01-15 07:22:00,
2013-01-15 08:27:00,46.9,42.6,29.88,NE,39,5.0,7.0,85,0.00,,,0.01,VWS V14.01,2013-01-15 07:27:00,
2013-01-15 08:30:00,47.2,42.9,29.88,NE,41,3.0,8.0,85,0.00,,,0.01,VWS V14.01,2013-01-15 07:30:00,
2013-01-15 08:33:00,47.1,42.8,29.89,NE,41,4.0,8.0,85,0.00,,,0.01,VWS V14.01,2013-01-15 07:33:00,
2013-01-15 08:37:00,47.5,43.2,29.88,NE,41,1.0,5.0,85,0.00,,,0.01,VWS V14.01,2013-01-15 07:37:00,
2013-01-15 08:40:00,47.4,43.1,29.88,NE,41,2.0,5.0,85,0.00,,,0.01,VWS V14.01,2013-01-15 07:40:00,
2013-01-15 08:42:00,47.5,43.2,29.88,NE,41,3.0,5.0,85,0.00,,,0.01,VWS V14.01,2013-01-15 07:42:00,
2013-01-15 08:47:00,47.3,42.7,29.88,NE,41,0.0,3.0,84,0.00,,,0.01,VWS V14.01,2013-01-15 07:47:00,
2013-01-15 08:50:00,47.4,43.1,29.88,NE,41,4.0,5.0,85,0.00,,,0.01,VWS V14.01,2013-01-15 07:50:00,
2013-01-15 08:52:00,47.3,43.0,29.88,NE,41,4.0,5.0,85,0.00,,,0.01,VWS V14.01,2013-01-15 07:52:00,
2013-01-15 08:57:00,47.6,43.3,29.88,NE,41,2.0,4.0,85,0.00,,,0.01,VWS V14.01,2013-01-15 07:57:00,
2013-01-15 09:00:00,48.4,43.8,29.88,NE,41,0.0,4.0,84,0.00,,,0.01,VWS V14.01,2013-01-15 08:00:00,
2013-01-15 09:02:00,48.2,43.6,29.88,NE,41,0.0,4.0,84,0.00,,,0.01,VWS V14.01,2013-01-15 08:02:00,
2013-01-15 09:07:00,48.6,44.0,29.89,NE,41,0.0,0.0,84,0.00,,,0.01,VWS V14.01,2013-01-15 08:07:00,
2013-01-15 09:10:00,48.9,44.0,29.88,NE,41,0.0,0.0,83,0.00,,,0.01,VWS V14.01,2013-01-15 08:10:00,
2013-01-15 09:12:00,48.9,44.3,29.88,NE,41,0.0,0.0,84,0.00,,,0.01,VWS V14.01,2013-01-15 08:12:00,
2013-01-15 09:17:00,49.0,44.1,29.88,NE,41,2.0,3.0,83,0.00,,,0.01,VWS V14.01,2013-01-15 08:17:00,
2013-01-15 09:20:00,49.0,44.1,29.88,NE,41,2.0,3.0,83,0.00,,,0.01,VWS V14.01,2013-01-15 08:20:00,
2013-01-15 09:22:00,49.0,44.1,29.88,NE,41,2.0,3.0,83,0.00,,,0.01,VWS V14.01,2013-01-15 08:22:00,
2013-01-15 09:27:00,48.9,43.7,29.88,NE,41,3.0,3.0,82,0.00,,,0.01,VWS V14.01,2013-01-15 08:27:00,
2013-01-15 09:30:00,49.1,43.8,29.88,NE,41,4.0,4.0,82,0.00,,,0.01,VWS V14.01,2013-01-15 08:30:00,
2013-01-15 09:32:00,49.1,43.8,29.88,NE,41,2.0,3.0,82,0.00,,,0.01,VWS V14.01,2013-01-15 08:32:00,
2013-01-15 09:37:00,49.2,44.0,29.88,NE,41,4.0,4.0,82,0.00,,,0.01,VWS V14.01,2013-01-15 08:37:00,
2013-01-15 09:40:00,49.4,43.8,29.87,NE,41,4.0,4.0,81,0.00,,,0.01,VWS V14.01,2013-01-15 08:40:00,
2013-01-15 09:42:00,49.4,43.8,29.87,NE,41,2.0,4.0,81,0.00,,,0.01,VWS V14.01,2013-01-15 08:42:00,
2013-01-15 09:47:00,49.6,44.0,29.87,NE,41,2.0,4.0,81,0.00,,,0.01,VWS V14.01,2013-01-15 08:47:00,
2013-01-15 09:50:00,50.3,44.7,29.87,NE,41,0.0,4.0,81,0.00,,,0.01,VWS V14.01,2013-01-15 08:50:00,
2013-01-15 09:52:00,50.1,44.2,29.87,NE,41,0.0,4.0,80,0.00,,,0.01,VWS V14.01,2013-01-15 08:52:00,
2013-01-15 09:57:00,50.8,44.9,29.87,NE,41,3.0,3.0,80,0.00,,,0.01,VWS V14.01,2013-01-15 08:57:00,
2013-01-15 10:00:00,51.7,45.4,29.87,ENE,63,4.0,4.0,79,0.00,,,0.01,VWS V14.01,2013-01-15 09:00:00,
2013-01-15 10:02:00,51.4,45.1,29.87,ENE,57,4.0,4.0,79,0.00,,,0.01,VWS V14.01,2013-01-15 09:02:00,
2013-01-15 10:07:00,51.8,45.2,29.87,East,82,2.0,5.0,78,0.00,,,0.01,VWS V14.01,2013-01-15 09:07:00,
2013-01-15 10:10:00,51.8,44.8,29.87,East,89,1.0,6.0,77,0.00,,,0.01,VWS V14.01,2013-01-15 09:10:00,
2013-01-15 10:12:00,51.7,44.7,29.87,East,89,3.0,6.0,77,0.00,,,0.01,VWS V14.01,2013-01-15 09:12:00,
2013-01-15 10:17:00,51.9,44.9,29.87,East,89,0.0,2.0,77,0.00,,,0.01,VWS V14.01,2013-01-15 09:17:00,
2013-01-15 10:20:00,52.0,44.7,29.87,East,89,2.0,3.0,76,0.00,,,0.01,VWS V14.01,2013-01-15 09:20:00,
2013-01-15 10:22:00,52.0,44.7,29.87,East,89,1.0,3.0,76,0.00,,,0.01,VWS V14.01,2013-01-15 09:22:00,
2013-01-15 10:27:00,52.0,44.7,29.86,East,89,0.0,2.0,76,0.00,,,0.01,VWS V14.01,2013-01-15 09:27:00,
2013-01-15 10:30:00,52.1,44.8,29.86,East,89,0.0,2.0,76,0.00,,,0.01,VWS V14.01,2013-01-15 09:30:00,
2013-01-15 10:32:00,52.1,44.8,29.86,East,89,0.0,2.0,76,0.00,,,0.01,VWS V14.01,2013-01-15 09:32:00,
2013-01-15 10:38:00,52.2,44.9,29.86,East,89,1.0,2.0,76,0.00,,,0.01,VWS V14.01,2013-01-15 09:38:00,
2013-01-15 10:40:00,52.2,44.9,29.85,East,89,1.0,2.0,76,0.00,,,0.01,VWS V14.01,2013-01-15 09:40:00,
2013-01-15 10:43:00,52.1,44.8,29.85,East,89,0.0,2.0,76,0.00,,,0.01,VWS V14.01,2013-01-15 09:43:00,
2013-01-15 10:48:00,52.2,45.2,29.85,East,89,2.0,3.0,77,0.00,,,0.01,VWS V14.01,2013-01-15 09:48:00,
2013-01-15 10:50:00,52.5,45.5,29.85,East,89,0.0,3.0,77,0.00,,,0.01,VWS V14.01,2013-01-15 09:50:00,
2013-01-15 10:53:00,52.4,45.4,29.86,East,89,0.0,3.0,77,0.00,,,0.01,VWS V14.01,2013-01-15 09:53:00,
2013-01-15 10:58:00,52.7,45.7,29.85,East,89,0.0,0.0,77,0.00,,,0.01,VWS V14.01,2013-01-15 09:58:00,
2013-01-15 11:00:00,53.1,46.1,29.85,East,89,0.0,1.0,77,0.00,,,0.01,VWS V14.01,2013-01-15 10:00:00,
2013-01-15 11:03:00,53.1,46.1,29.85,East,89,1.0,1.0,77,0.00,,,0.01,VWS V14.01,2013-01-15 10:03:00,
2013-01-15 11:08:00,53.3,46.3,29.85,East,89,0.0,0.0,77,0.00,,,0.01,VWS V14.01,2013-01-15 10:08:00,
2013-01-15 11:10:00,53.9,46.5,29.84,East,89,0.0,2.0,76,0.00,,,0.01,VWS V14.01,2013-01-15 10:10:00,
2013-01-15 11:13:00,53.8,46.4,29.85,East,89,0.0,2.0,76,0.00,,,0.01,VWS V14.01,2013-01-15 10:13:00,
2013-01-15 11:18:00,53.8,46.1,29.84,South,183,4.0,5.0,75,0.00,,,0.01,VWS V14.01,2013-01-15 10:18:00,
2013-01-15 11:20:00,53.6,46.2,29.84,South,179,2.0,5.0,76,0.00,,,0.01,VWS V14.01,2013-01-15 10:20:00,
2013-01-15 11:23:00,53.6,46.2,29.84,South,179,1.0,5.0,76,0.00,,,0.01,VWS V14.01,2013-01-15 10:23:00,
2013-01-15 11:28:00,53.5,45.8,29.84,South,179,0.0,3.0,75,0.00,,,0.01,VWS V14.01,2013-01-15 10:28:00,
2013-01-15 11:30:00,53.4,46.0,29.84,South,179,1.0,3.0,76,0.00,,,0.01,VWS V14.01,2013-01-15 10:30:00,
2013-01-15 11:33:00,53.5,46.1,29.84,South,179,1.0,3.0,76,0.00,,,0.01,VWS V14.01,2013-01-15 10:33:00,
2013-01-15 11:38:00,53.4,46.0,29.84,South,179,1.0,3.0,76,0.00,,,0.01,VWS V14.01,2013-01-15 10:38:00,
2013-01-15 11:40:00,53.4,46.0,29.83,South,179,0.0,3.0,76,0.00,,,0.01,VWS V14.01,2013-01-15 10:40:00,
2013-01-15 11:43:00,53.4,46.0,29.83,South,179,0.0,3.0,76,0.00,,,0.01,VWS V14.01,2013-01-15 10:43:00,
2013-01-15 11:48:00,53.4,46.0,29.83,South,179,0.0,1.0,76,0.00,,,0.01,VWS V14.01,2013-01-15 10:48:00,
2013-01-15 11:50:00,53.6,46.6,29.83,South,179,0.0,2.0,77,0.00,,,0.01,VWS V14.01,2013-01-15 10:50:00,
2013-01-15 11:53:00,53.6,46.6,29.83,South,179,0.0,2.0,77,0.00,,,0.01,VWS V14.01,2013-01-15 10:53:00,
2013-01-15 11:58:00,53.5,46.1,29.82,South,179,0.0,3.0,76,0.00,,,0.01,VWS V14.01,2013-01-15 10:58:00,
2013-01-15 12:00:00,53.4,46.0,29.82,South,179,0.0,3.0,76,0.00,,,0.01,VWS V14.01,2013-01-15 11:00:00,
2013-01-15 12:03:00,53.4,46.4,29.82,South,179,0.0,3.0,77,0.00,,,0.01,VWS V14.01,2013-01-15 11:03:00,
2013-01-15 12:08:00,53.3,45.9,29.81,South,179,2.0,3.0,76,0.00,,,0.01,VWS V14.01,2013-01-15 11:08:00,
2013-01-15 12:10:00,53.4,46.4,29.81,South,179,2.0,3.0,77,0.00,,,0.01,VWS V14.01,2013-01-15 11:10:00,
2013-01-15 12:13:00,53.4,46.4,29.81,South,179,0.0,3.0,77,0.00,,,0.01,VWS V14.01,2013-01-15 11:13:00,
2013-01-15 12:18:00,53.6,46.6,29.81,South,179,0.0,2.0,77,0.00,,,0.01,VWS V14.01,2013-01-15 11:18:00,
2013-01-15 12:20:00,53.7,46.7,29.81,South,180,2.0,2.0,77,0.00,,,0.01,VWS V14.01,2013-01-15 11:20:00,
2013-01-15 12:23:00,53.7,46.7,29.81,South,179,2.0,2.0,77,0.00,,,0.01,VWS V14.01,2013-01-15 11:23:00,
2013-01-15 12:28:00,53.6,46.2,29.81,South,180,0.0,3.0,76,0.00,,,0.01,VWS V14.01,2013-01-15 11:28:00,
2013-01-15 12:30:00,53.8,46.8,29.80,South,180,0.0,3.0,77,0.00,,,0.01,VWS V14.01,2013-01-15 11:30:00,
2013-01-15 12:33:00,53.8,46.8,29.80,South,180,0.0,3.0,77,0.00,,,0.01,VWS V14.01,2013-01-15 11:33:00,
2013-01-15 12:38:00,53.6,46.2,29.80,South,180,0.0,3.0,76,0.00,,,0.01,VWS V14.01,2013-01-15 11:38:00,
2013-01-15 12:40:00,53.6,46.2,29.80,South,180,2.0,3.0,76,0.00,,,0.01,VWS V14.01,2013-01-15 11:40:00,
2013-01-15 12:43:00,53.6,46.2,29.80,South,180,1.0,3.0,76,0.00,,,0.01,VWS V14.01,2013-01-15 11:43:00,
2013-01-15 12:48:00,53.7,46.7,29.79,South,179,0.0,3.0,77,0.00,,,0.01,VWS V14.01,2013-01-15 11:48:00,
2013-01-15 12:50:00,53.4,46.0,29.79,NE,53,2.0,6.0,76,0.00,,,0.01,VWS V14.01,2013-01-15 11:50:00,
2013-01-15 12:53:00,53.5,46.1,29.79,NE,53,2.0,6.0,76,0.00,,,0.01,VWS V14.01,2013-01-15 11:53:00,
2013-01-15 12:58:00,53.3,45.6,29.79,NE,53,1.0,4.0,75,0.00,,,0.01,VWS V14.01,2013-01-15 11:58:00,
2013-01-15 13:00:00,53.4,45.7,29.79,NE,53,0.0,4.0,75,0.00,,,0.01,VWS V14.01,2013-01-15 12:00:00,
2013-01-15 13:03:00,53.4,45.7,29.79,NE,53,0.0,4.0,75,0.00,,,0.01,VWS V14.01,2013-01-15 12:03:00,
2013-01-15 13:08:00,53.4,45.3,29.78,NE,53,0.0,1.0,74,0.00,,,0.01,VWS V14.01,2013-01-15 12:08:00,
2013-01-15 13:10:00,53.5,45.4,29.78,NE,53,0.0,1.0,74,0.00,,,0.01,VWS V14.01,2013-01-15 12:10:00,
2013-01-15 13:14:00,53.5,45.4,29.78,NE,53,0.0,1.0,74,0.00,,,0.01,VWS V14.01,2013-01-15 12:14:00,
2013-01-15 13:19:00,53.6,45.5,29.78,SE,124,3.0,5.0,74,0.00,,,0.01,VWS V14.01,2013-01-15 12:19:00,
2013-01-15 13:20:00,52.6,45.6,29.78,ESE,116,4.0,9.0,77,0.00,,,0.01,VWS V14.01,2013-01-15 12:20:00,
2013-01-15 13:24:00,52.6,45.6,29.78,ESE,116,3.0,9.0,77,0.00,,,0.01,VWS V14.01,2013-01-15 12:24:00,
2013-01-15 13:29:00,52.5,46.2,29.78,ESE,117,1.0,5.0,79,0.00,,,0.01,VWS V14.01,2013-01-15 12:29:00,
2013-01-15 13:30:00,52.5,46.2,29.77,ESE,117,0.0,5.0,79,0.00,,,0.01,VWS V14.01,2013-01-15 12:30:00,
2013-01-15 13:34:00,52.5,46.2,29.77,ESE,117,0.0,5.0,79,0.00,,,0.01,VWS V14.01,2013-01-15 12:34:00,
2013-01-15 13:39:00,52.6,46.3,29.77,ESE,117,0.0,0.0,79,0.01,,,0.02,VWS V14.01,2013-01-15 12:39:00,
2013-01-15 13:40:00,52.2,45.6,29.77,SW,236,4.0,6.0,78,0.02,,,0.03,VWS V14.01,2013-01-15 12:40:00,
2013-01-15 13:44:00,52.3,46.3,29.77,SW,215,6.0,6.0,80,0.02,,,0.03,VWS V14.01,2013-01-15 12:44:00,
2013-01-15 13:49:00,51.8,43.4,29.76,WSW,239,4.0,7.0,73,0.02,,,0.03,VWS V14.01,2013-01-15 12:49:00,
2013-01-15 13:50:00,52.0,45.0,29.76,WSW,239,4.0,7.0,77,0.02,,,0.03,VWS V14.01,2013-01-15 12:50:00,
2013-01-15 13:54:00,52.0,45.0,29.76,WSW,239,4.0,7.0,77,0.02,,,0.03,VWS V14.01,2013-01-15 12:54:00,
2013-01-15 13:59:00,51.9,45.9,29.77,SW,234,3.0,6.0,80,0.02,,,0.03,VWS V14.01,2013-01-15 12:59:00,
2013-01-15 14:00:00,51.6,45.6,29.76,SW,217,0.0,6.0,80,0.03,,,0.04,VWS V14.01,2013-01-15 13:00:00,
2013-01-15 14:04:00,51.6,45.6,29.76,SW,217,0.0,6.0,80,0.03,,,0.04,VWS V14.01,2013-01-15 13:04:00,
2013-01-15 14:09:00,51.6,45.6,29.76,SW,217,0.0,4.0,80,0.03,,,0.04,VWS V14.01,2013-01-15 13:09:00,
2013-01-15 14:10:00,51.6,45.6,29.76,SSW,206,2.0,4.0,80,0.03,,,0.04,VWS V14.01,2013-01-15 13:10:00,
2013-01-15 14:14:00,51.6,45.6,29.76,SSW,206,2.0,4.0,80,0.03,,,0.04,VWS V14.01,2013-01-15 13:14:00,
2013-01-15 14:19:00,51.7,45.7,29.76,South,170,1.0,4.0,80,0.03,,,0.04,VWS V14.01,2013-01-15 13:19:00,
2013-01-15 14:20:00,52.0,45.7,29.75,SSE,166,2.0,4.0,79,0.03,,,0.04,VWS V14.01,2013-01-15 13:20:00,
2013-01-15 14:24:00,52.0,45.7,29.75,SSE,166,2.0,4.0,79,0.03,,,0.04,VWS V14.01,2013-01-15 13:24:00,
2013-01-15 14:29:00,52.3,46.0,29.75,SSE,166,0.0,3.0,79,0.03,,,0.04,VWS V14.01,2013-01-15 13:29:00,
2013-01-15 14:30:00,52.5,45.8,29.74,SSE,166,0.0,3.0,78,0.03,,,0.04,VWS V14.01,2013-01-15 13:30:00,
2013-01-15 14:34:00,52.5,45.8,29.74,SSE,166,0.0,3.0,78,0.03,,,0.04,VWS V14.01,2013-01-15 13:34:00,
2013-01-15 14:39:00,52.9,45.9,29.74,SSE,166,0.0,0.0,77,0.03,,,0.04,VWS V14.01,2013-01-15 13:39:00,
2013-01-15 14:40:00,53.8,46.8,29.74,SSE,166,0.0,0.0,77,0.03,,,0.04,VWS V14.01,2013-01-15 13:40:00,
2013-01-15 14:44:00,53.7,46.7,29.74,SSE,166,0.0,0.0,77,0.03,,,0.04,VWS V14.01,2013-01-15 13:44:00,
2013-01-15 14:49:00,54.7,47.3,29.74,SSE,167,1.0,3.0,76,0.01,,,0.04,VWS V14.01,2013-01-15 13:49:00,
2013-01-15 14:50:00,54.5,46.8,29.74,SSE,165,0.0,3.0,75,0.01,,,0.04,VWS V14.01,2013-01-15 13:50:00,
2013-01-15 14:54:00,54.5,46.8,29.74,SSE,165,0.0,0.0,75,0.01,,,0.04,VWS V14.01,2013-01-15 13:54:00,
2013-01-15 14:59:00,53.9,45.8,29.74,NNW,330,2.0,5.0,74,0.02,,,0.05,VWS V14.01,2013-01-15 13:59:00,
2013-01-15 15:00:00,53.5,45.8,29.74,NNW,339,3.0,6.0,75,0.02,,,0.05,VWS V14.01,2013-01-15 14:00:00,
2013-01-15 15:04:00,53.5,45.8,29.74,NNW,339,3.0,6.0,75,0.02,,,0.05,VWS V14.01,2013-01-15 14:04:00,
2013-01-15 15:09:00,53.7,46.0,29.74,NNW,340,2.0,4.0,75,0.01,,,0.05,VWS V14.01,2013-01-15 14:09:00,
2013-01-15 15:10:00,54.1,46.7,29.74,NNW,340,0.0,4.0,76,0.01,,,0.05,VWS V14.01,2013-01-15 14:10:00,
2013-01-15 15:14:00,54.1,46.7,29.74,NNW,340,0.0,4.0,76,0.01,,,0.05,VWS V14.01,2013-01-15 14:14:00,
2013-01-15 15:19:00,54.6,46.5,29.74,WNW,294,0.0,5.0,74,0.01,,,0.05,VWS V14.01,2013-01-15 14:19:00,
2013-01-15 15:20:00,54.9,46.4,29.73,WNW,294,0.0,5.0,73,0.01,,,0.05,VWS V14.01,2013-01-15 14:20:00,
2013-01-15 15:24:00,54.9,46.4,29.73,WNW,294,0.0,0.0,73,0.01,,,0.05,VWS V14.01,2013-01-15 14:24:00,
2013-01-15 15:29:00,54.7,45.5,29.74,WNW,294,2.0,4.0,71,0.01,,,0.05,VWS V14.01,2013-01-15 14:29:00,
2013-01-15 15:30:00,54.8,45.6,29.73,WNW,294,2.0,4.0,71,0.01,,,0.05,VWS V14.01,2013-01-15 14:30:00,
2013-01-15 15:34:00,54.8,45.6,29.73,WNW,294,1.0,2.0,71,0.01,,,0.05,VWS V14.01,2013-01-15 14:34:00,
2013-01-15 15:39:00,54.1,44.9,29.74,WNW,294,0.0,3.0,71,0.01,,,0.05,VWS V14.01,2013-01-15 14:39:00,
2013-01-15 15:40:00,54.0,45.2,29.73,West,273,2.0,4.0,72,0.01,,,0.05,VWS V14.01,2013-01-15 14:40:00,
2013-01-15 15:44:00,54.0,45.2,29.73,West,273,2.0,4.0,72,0.01,,,0.05,VWS V14.01,2013-01-15 14:44:00,
2013-01-15 15:49:00,53.9,45.1,29.73,West,273,0.0,5.0,72,0.01,,,0.05,VWS V14.01,2013-01-15 14:49:00,
2013-01-15 15:50:00,54.1,45.3,29.73,West,273,1.0,5.0,72,0.01,,,0.05,VWS V14.01,2013-01-15 14:50:00,
2013-01-15 15:54:00,54.0,45.2,29.73,West,273,2.0,5.0,72,0.01,,,0.05,VWS V14.01,2013-01-15 14:54:00,
2013-01-15 15:59:00,54.5,45.7,29.73,West,273,0.0,3.0,72,0.01,,,0.05,VWS V14.01,2013-01-15 14:59:00,
2013-01-15 16:00:00,55.2,46.0,29.73,West,273,0.0,3.0,71,0.01,,,0.05,VWS V14.01,2013-01-15 15:00:00,
2013-01-15 16:04:00,55.2,46.0,29.73,West,273,0.0,3.0,71,0.01,,,0.05,VWS V14.01,2013-01-15 15:04:00,
2013-01-15 16:09:00,54.9,44.2,29.72,West,273,4.0,5.0,67,0.00,,,0.05,VWS V14.01,2013-01-15 15:09:00,
2013-01-15 16:10:00,54.5,43.4,29.72,West,274,1.0,5.0,66,0.00,,,0.05,VWS V14.01,2013-01-15 15:10:00,
2013-01-15 16:14:00,54.5,43.4,29.72,West,274,1.0,5.0,66,0.00,,,0.05,VWS V14.01,2013-01-15 15:14:00,
2013-01-15 16:19:00,54.8,44.1,29.72,West,274,2.0,3.0,67,0.00,,,0.05,VWS V14.01,2013-01-15 15:19:00,
2013-01-15 16:20:00,54.8,43.3,29.72,West,274,1.0,3.0,65,0.00,,,0.05,VWS V14.01,2013-01-15 15:20:00,
2013-01-15 16:24:00,54.8,43.3,29.72,West,274,2.0,2.0,65,0.00,,,0.05,VWS V14.01,2013-01-15 15:24:00,
2013-01-15 16:29:00,54.7,42.8,29.72,West,274,0.0,2.0,64,0.00,,,0.05,VWS V14.01,2013-01-15 15:29:00,
2013-01-15 16:30:00,54.7,43.2,29.72,West,274,2.0,2.0,65,0.00,,,0.05,VWS V14.01,2013-01-15 15:30:00,
2013-01-15 16:34:00,54.7,43.2,29.72,West,274,2.0,2.0,65,0.00,,,0.05,VWS V14.01,2013-01-15 15:34:00,
2013-01-15 16:39:00,54.6,42.7,29.72,West,274,0.0,2.0,64,0.00,,,0.05,VWS V14.01,2013-01-15 15:39:00,
2013-01-15 16:40:00,54.1,43.0,29.72,West,274,2.0,3.0,66,0.00,,,0.05,VWS V14.01,2013-01-15 15:40:00,
2013-01-15 16:44:00,54.1,43.0,29.72,West,274,2.0,3.0,66,0.00,,,0.05,VWS V14.01,2013-01-15 15:44:00,
2013-01-15 16:49:00,53.5,43.2,29.72,West,274,3.0,4.0,68,0.00,,,0.05,VWS V14.01,2013-01-15 15:49:00,
2013-01-15 16:50:00,53.1,43.6,29.72,West,274,1.0,4.0,70,0.00,,,0.05,VWS V14.01,2013-01-15 15:50:00,
2013-01-15 16:54:00,53.1,43.6,29.72,West,274,1.0,4.0,70,0.00,,,0.05,VWS V14.01,2013-01-15 15:54:00,
2013-01-15 16:59:00,52.9,43.8,29.72,West,274,0.0,3.0,71,0.00,,,0.05,VWS V14.01,2013-01-15 15:59:00,
2013-01-15 17:00:00,52.7,43.9,29.72,West,274,0.0,3.0,72,0.00,,,0.05,VWS V14.01,2013-01-15 16:00:00,
2013-01-15 17:04:00,52.7,43.9,29.72,West,274,0.0,3.0,72,0.00,,,0.05,VWS V14.01,2013-01-15 16:04:00,
2013-01-15 17:09:00,52.5,43.8,29.72,West,274,2.0,2.0,72,0.00,,,0.05,VWS V14.01,2013-01-15 16:09:00,
2013-01-15 17:10:00,52.3,43.9,29.72,West,274,1.0,2.0,73,0.00,,,0.05,VWS V14.01,2013-01-15 16:10:00,
2013-01-15 17:14:00,52.2,43.8,29.72,West,274,1.0,1.0,73,0.00,,,0.05,VWS V14.01,2013-01-15 16:14:00,
2013-01-15 17:19:00,52.1,43.7,29.72,West,274,0.0,1.0,73,0.00,,,0.05,VWS V14.01,2013-01-15 16:19:00,
2013-01-15 17:20:00,51.8,43.8,29.72,West,274,1.0,1.0,74,0.00,,,0.05,VWS V14.01,2013-01-15 16:20:00,
2013-01-15 17:24:00,51.8,43.8,29.72,West,274,1.0,1.0,74,0.00,,,0.05,VWS V14.01,2013-01-15 16:24:00,
2013-01-15 17:29:00,51.3,43.7,29.72,West,274,2.0,2.0,75,0.00,,,0.05,VWS V14.01,2013-01-15 16:29:00,
2013-01-15 17:30:00,51.0,43.7,29.72,West,274,2.0,3.0,76,0.00,,,0.05,VWS V14.01,2013-01-15 16:30:00,
2013-01-15 17:34:00,51.0,43.7,29.72,West,274,2.0,3.0,76,0.00,,,0.05,VWS V14.01,2013-01-15 16:34:00,
2013-01-15 17:39:00,50.7,43.8,29.72,West,274,2.0,3.0,77,0.00,,,0.05,VWS V14.01,2013-01-15 16:39:00,
2013-01-15 17:40:00,50.6,43.3,29.72,West,274,2.0,3.0,76,0.00,,,0.05,VWS V14.01,2013-01-15 16:40:00,
2013-01-15 17:44:00,50.6,43.3,29.72,West,274,2.0,3.0,76,0.00,,,0.05,VWS V14.01,2013-01-15 16:44:00,
2013-01-15 17:49:00,50.4,43.5,29.72,West,274,1.0,3.0,77,0.00,,,0.05,VWS V14.01,2013-01-15 16:49:00,
2013-01-15 17:50:00,50.3,43.4,29.72,West,274,2.0,3.0,77,0.00,,,0.05,VWS V14.01,2013-01-15 16:50:00,
2013-01-15 17:54:00,50.3,43.4,29.72,West,274,2.0,3.0,77,0.00,,,0.05,VWS V14.01,2013-01-15 16:54:00,
2013-01-15 17:59:00,50.2,43.3,29.72,West,274,2.0,3.0,77,0.00,,,0.05,VWS V14.01,2013-01-15 16:59:00,
2013-01-15 18:00:00,50.1,43.2,29.72,West,274,2.0,3.0,77,0.00,,,0.05,VWS V14.01,2013-01-15 17:00:00,
2013-01-15 18:04:00,50.1,43.2,29.72,West,274,2.0,3.0,77,0.00,,,0.05,VWS V14.01,2013-01-15 17:04:00,
2013-01-15 18:09:00,50.1,43.2,29.72,West,274,2.0,4.0,77,0.00,,,0.05,VWS V14.01,2013-01-15 17:09:00,
2013-01-15 18:10:00,50.0,43.1,29.72,West,274,4.0,4.0,77,0.00,,,0.05,VWS V14.01,2013-01-15 17:10:00,
2013-01-15 18:14:00,50.0,43.1,29.72,West,274,4.0,4.0,77,0.00,,,0.05,VWS V14.01,2013-01-15 17:14:00,
2013-01-15 18:19:00,49.8,42.9,29.72,West,274,3.0,5.0,77,0.00,,,0.05,VWS V14.01,2013-01-15 17:19:00,
2013-01-15 18:20:00,49.6,42.7,29.72,West,274,4.0,5.0,77,0.00,,,0.05,VWS V14.01,2013-01-15 17:20:00,
2013-01-15 18:24:00,49.6,42.7,29.72,West,274,4.0,5.0,77,0.00,,,0.05,VWS V14.01,2013-01-15 17:24:00,
2013-01-15 18:29:00,49.5,42.9,29.72,West,274,4.0,5.0,78,0.00,,,0.05,VWS V14.01,2013-01-15 17:29:00,
2013-01-15 18:30:00,49.6,43.0,29.72,West,281,4.0,5.0,78,0.00,,,0.05,VWS V14.01,2013-01-15 17:30:00,
2013-01-15 18:34:00,49.6,43.0,29.72,West,281,4.0,5.0,78,0.00,,,0.05,VWS V14.01,2013-01-15 17:34:00,
2013-01-15 18:39:00,49.6,43.0,29.72,WNW,282,3.0,4.0,78,0.00,,,0.05,VWS V14.01,2013-01-15 17:39:00,
2013-01-15 18:40:00,49.6,43.0,29.71,WNW,296,4.0,4.0,78,0.00,,,0.05,VWS V14.01,2013-01-15 17:40:00,
2013-01-15 18:44:00,49.6,43.0,29.71,WNW,296,4.0,4.0,78,0.00,,,0.05,VWS V14.01,2013-01-15 17:44:00,
2013-01-15 18:49:00,49.6,42.7,29.71,WNW,301,3.0,5.0,77,0.00,,,0.05,VWS V14.01,2013-01-15 17:49:00,
2013-01-15 18:50:00,49.5,42.6,29.71,WNW,303,3.0,5.0,77,0.00,,,0.05,VWS V14.01,2013-01-15 17:50:00,
2013-01-15 18:54:00,49.5,42.6,29.71,WNW,303,3.0,5.0,77,0.00,,,0.05,VWS V14.01,2013-01-15 17:54:00,
2013-01-15 18:59:00,49.6,42.7,29.72,NW,310,3.0,5.0,77,0.00,,,0.05,VWS V14.01,2013-01-15 17:59:00,
2013-01-15 19:00:00,49.5,42.6,29.71,NW,311,4.0,5.0,77,0.00,,,0.05,VWS V14.01,2013-01-15 18:00:00,
2013-01-15 19:04:00,49.5,42.6,29.71,NW,311,3.0,5.0,77,0.00,,,0.05,VWS V14.01,2013-01-15 18:04:00,
2013-01-15 19:09:00,49.5,42.6,29.71,NW,314,3.0,4.0,77,0.00,,,0.05,VWS V14.01,2013-01-15 18:09:00,
2013-01-15 19:10:00,49.4,42.5,29.71,NW,315,3.0,4.0,77,0.00,,,0.05,VWS V14.01,2013-01-15 18:10:00,
2013-01-15 19:14:00,49.4,42.5,29.71,NW,315,3.0,3.0,77,0.00,,,0.05,VWS V14.01,2013-01-15 18:14:00,
2013-01-15 19:19:00,49.2,42.6,29.71,NW,315,3.0,4.0,78,0.00,,,0.05,VWS V14.01,2013-01-15 18:19:00,
2013-01-15 19:20:00,49.2,42.6,29.71,NW,317,4.0,4.0,78,0.00,,,0.05,VWS V14.01,2013-01-15 18:20:00,
2013-01-15 19:24:00,49.2,42.6,29.71,NW,317,4.0,4.0,78,0.00,,,0.05,VWS V14.01,2013-01-15 18:24:00,
2013-01-15 19:29:00,49.3,42.7,29.71,NNW,336,5.0,5.0,78,0.00,,,0.05,VWS V14.01,2013-01-15 18:29:00,
2013-01-15 19:30:00,49.4,42.8,29.71,NNW,339,3.0,5.0,78,0.00,,,0.05,VWS V14.01,2013-01-15 18:30:00,
2013-01-15 19:34:00,49.4,42.8,29.71,NNW,339,3.0,5.0,78,0.00,,,0.05,VWS V14.01,2013-01-15 18:34:00,
2013-01-15 19:39:00,49.4,42.8,29.71,NNW,339,2.0,4.0,78,0.00,,,0.05,VWS V14.01,2013-01-15 18:39:00,
2013-01-15 19:40:00,48.9,42.3,29.71,NNW,339,2.0,4.0,78,0.00,,,0.05,VWS V14.01,2013-01-15 18:40:00,
2013-01-15 19:44:00,48.9,42.3,29.71,NNW,339,2.0,4.0,78,0.00,,,0.05,VWS V14.01,2013-01-15 18:44:00,
2013-01-15 19:49:00,48.8,42.3,29.71,NNW,339,3.0,3.0,78,0.00,,,0.05,VWS V14.01,2013-01-15 18:49:00,
2013-01-15 19:50:00,48.9,42.7,29.71,NNW,339,2.0,3.0,79,0.00,,,0.05,VWS V14.01,2013-01-15 18:50:00,
2013-01-15 19:54:00,48.9,42.7,29.71,NNW,339,2.0,3.0,79,0.00,,,0.05,VWS V14.01,2013-01-15 18:54:00,
2013-01-15 19:59:00,49.0,42.8,29.71,NNW,339,3.0,3.0,79,0.00,,,0.05,VWS V14.01,2013-01-15 18:59:00,
2013-01-15 20:00:00,49.1,42.9,29.71,NNW,339,3.0,3.0,79,0.00,,,0.05,VWS V14.01,2013-01-15 19:00:00,
2013-01-15 20:04:00,49.1,42.9,29.71,NNW,339,3.0,3.0,79,0.00,,,0.05,VWS V14.01,2013-01-15 19:04:00,
2013-01-15 20:09:00,49.1,42.9,29.71,NNW,339,3.0,4.0,79,0.00,,,0.05,VWS V14.01,2013-01-15 19:09:00,
2013-01-15 20:10:00,48.7,42.5,29.71,NNW,339,4.0,4.0,79,0.00,,,0.05,VWS V14.01,2013-01-15 19:10:00,
2013-01-15 20:14:00,48.7,42.5,29.70,NNW,339,3.0,4.0,79,0.00,,,0.05,VWS V14.01,2013-01-15 19:14:00,
2013-01-15 20:19:00,48.8,42.9,29.70,NNW,339,2.0,4.0,80,0.00,,,0.05,VWS V14.01,2013-01-15 19:19:00,
2013-01-15 20:20:00,48.7,42.8,29.70,NNW,339,3.0,4.0,80,0.00,,,0.05,VWS V14.01,2013-01-15 19:20:00,
2013-01-15 20:24:00,48.7,42.8,29.70,NNW,339,3.0,3.0,80,0.00,,,0.05,VWS V14.01,2013-01-15 19:24:00,
2013-01-15 20:29:00,48.5,42.6,29.70,NNW,339,4.0,4.0,80,0.00,,,0.05,VWS V14.01,2013-01-15 19:29:00,
2013-01-15 20:30:00,48.3,42.4,29.69,NNW,339,2.0,4.0,80,0.00,,,0.05,VWS V14.01,2013-01-15 19:30:00,
2013-01-15 20:34:00,48.3,42.4,29.69,NNW,339,2.0,4.0,80,0.00,,,0.05,VWS V14.01,2013-01-15 19:34:00,
2013-01-15 20:39:00,48.5,43.0,29.69,NNW,339,4.0,4.0,81,0.00,,,0.05,VWS V14.01,2013-01-15 19:39:00,
2013-01-15 20:40:00,48.7,43.1,29.69,North,350,3.0,5.0,81,0.00,,,0.05,VWS V14.01,2013-01-15 19:40:00,
2013-01-15 20:44:00,48.7,43.1,29.69,North,350,4.0,4.0,81,0.00,,,0.05,VWS V14.01,2013-01-15 19:44:00,
2013-01-15 20:49:00,48.7,42.8,29.69,North,350,3.0,4.0,80,0.00,,,0.05,VWS V14.01,2013-01-15 19:49:00,
2013-01-15 20:50:00,48.7,43.1,29.69,North,350,3.0,4.0,81,0.00,,,0.05,VWS V14.01,2013-01-15 19:50:00,
2013-01-15 20:54:00,48.7,43.1,29.69,North,350,3.0,3.0,81,0.00,,,0.05,VWS V14.01,2013-01-15 19:54:00,
2013-01-15 20:59:00,49.3,43.4,29.69,North,350,2.0,3.0,80,0.00,,,0.05,VWS V14.01,2013-01-15 19:59:00,
2013-01-15 21:00:00,49.5,43.6,29.69,North,350,2.0,3.0,80,0.00,,,0.05,VWS V14.01,2013-01-15 20:00:00,
2013-01-15 21:04:00,49.5,43.6,29.69,North,350,2.0,2.0,80,0.00,,,0.05,VWS V14.01,2013-01-15 20:04:00,
2013-01-15 21:09:00,49.5,43.6,29.69,North,350,2.0,3.0,80,0.00,,,0.05,VWS V14.01,2013-01-15 20:09:00,
2013-01-15 21:10:00,49.5,43.6,29.68,North,350,3.0,3.0,80,0.00,,,0.05,VWS V14.01,2013-01-15 20:10:00,
2013-01-15 21:14:00,49.5,43.6,29.68,North,350,3.0,3.0,80,0.00,,,0.05,VWS V14.01,2013-01-15 20:14:00,
2013-01-15 21:19:00,49.3,43.4,29.68,North,350,3.0,4.0,80,0.00,,,0.05,VWS V14.01,2013-01-15 20:19:00,
2013-01-15 21:20:00,49.1,43.2,29.68,North,350,1.0,4.0,80,0.00,,,0.05,VWS V14.01,2013-01-15 20:20:00,
2013-01-15 21:24:00,49.1,43.2,29.68,North,350,1.0,2.0,80,0.00,,,0.05,VWS V14.01,2013-01-15 20:24:00,
2013-01-15 21:29:00,49.4,43.8,29.68,North,350,2.0,3.0,81,0.00,,,0.05,VWS V14.01,2013-01-15 20:29:00,
2013-01-15 21:30:00,49.6,44.0,29.68,North,350,1.0,3.0,81,0.00,,,0.05,VWS V14.01,2013-01-15 20:30:00,
2013-01-15 21:34:00,49.7,44.1,29.67,North,350,2.0,2.0,81,0.00,,,0.05,VWS V14.01,2013-01-15 20:34:00,
2013-01-15 21:39:00,49.9,44.3,29.67,North,350,2.0,2.0,81,0.00,,,0.05,VWS V14.01,2013-01-15 20:39:00,
2013-01-15 21:40:00,49.8,43.9,29.68,North,350,2.0,3.0,80,0.00,,,0.05,VWS V14.01,2013-01-15 20:40:00,
2013-01-15 21:44:00,49.8,43.9,29.67,North,350,1.0,2.0,80,0.00,,,0.05,VWS V14.01,2013-01-15 20:44:00,
2013-01-15 21:49:00,49.9,44.0,29.67,North,350,1.0,2.0,80,0.00,,,0.05,VWS V14.01,2013-01-15 20:49:00,
2013-01-15 21:50:00,50.0,44.1,29.67,North,350,1.0,2.0,80,0.00,,,0.05,VWS V14.01,2013-01-15 20:50:00,
2013-01-15 21:54:00,50.0,44.1,29.68,North,350,1.0,2.0,80,0.00,,,0.05,VWS V14.01,2013-01-15 20:54:00,
2013-01-15 21:59:00,49.8,43.9,29.67,North,350,0.0,2.0,80,0.00,,,0.05,VWS V14.01,2013-01-15 20:59:00,
2013-01-15 22:00:00,49.7,43.8,29.67,North,350,2.0,3.0,80,0.00,,,0.05,VWS V14.01,2013-01-15 21:00:00,
2013-01-15 22:05:00,49.7,43.8,29.67,North,350,1.0,3.0,80,0.00,,,0.05,VWS V14.01,2013-01-15 21:05:00,
2013-01-15 22:10:00,49.4,43.8,29.67,North,350,3.0,3.0,81,0.00,,,0.05,VWS V14.01,2013-01-15 21:10:00,
2013-01-15 22:15:00,49.2,43.6,29.67,North,5,2.0,3.0,81,0.00,,,0.05,VWS V14.01,2013-01-15 21:15:00,
2013-01-15 22:20:00,49.1,43.8,29.67,NNE,20,4.0,4.0,82,0.00,,,0.05,VWS V14.01,2013-01-15 21:20:00,
2013-01-15 22:25:00,49.3,44.0,29.67,NE,53,2.0,3.0,82,0.00,,,0.05,VWS V14.01,2013-01-15 21:25:00,
2013-01-15 22:30:00,49.4,44.5,29.66,East,94,3.0,7.0,83,0.00,,,0.05,VWS V14.01,2013-01-15 21:30:00,
2013-01-15 22:35:00,49.4,44.5,29.66,East,94,2.0,6.0,83,0.00,,,0.05,VWS V14.01,2013-01-15 21:35:00,
2013-01-15 22:40:00,49.5,44.6,29.66,East,95,0.0,6.0,83,0.00,,,0.05,VWS V14.01,2013-01-15 21:40:00,
2013-01-15 22:45:00,49.6,45.0,29.67,ESE,102,0.0,2.0,84,0.00,,,0.05,VWS V14.01,2013-01-15 21:45:00,
2013-01-15 22:50:00,49.6,45.0,29.66,ESE,102,0.0,3.0,84,0.00,,,0.05,VWS V14.01,2013-01-15 21:50:00,
2013-01-15 22:55:00,49.6,45.0,29.66,ESE,102,5.0,5.0,84,0.00,,,0.05,VWS V14.01,2013-01-15 21:55:00,
2013-01-15 23:00:00,50.1,45.5,29.66,SE,129,3.0,7.0,84,0.00,,,0.05,VWS V14.01,2013-01-15 22:00:00,
2013-01-15 23:05:00,50.0,45.4,29.66,SE,131,0.0,1.0,84,0.00,,,0.05,VWS V14.01,2013-01-15 22:05:00,
2013-01-15 23:10:00,50.0,45.4,29.66,SE,131,2.0,4.0,84,0.00,,,0.05,VWS V14.01,2013-01-15 22:10:00,
2013-01-15 23:15:00,50.2,45.2,29.66,SE,131,0.0,1.0,83,0.00,,,0.05,VWS V14.01,2013-01-15 22:15:00,
2013-01-15 23:20:00,50.4,45.4,29.65,SE,131,3.0,3.0,83,0.00,,,0.05,VWS V14.01,2013-01-15 22:20:00,
2013-01-15 23:25:00,50.4,45.4,29.65,SE,131,2.0,3.0,83,0.00,,,0.05,VWS V14.01,2013-01-15 22:25:00,
2013-01-15 23:30:00,50.3,45.0,29.65,SSW,192,7.0,7.0,82,0.00,,,0.05,VWS V14.01,2013-01-15 22:30:00,
2013-01-15 23:35:00,51.1,44.5,29.64,SW,214,6.0,6.0,78,0.00,,,0.05,VWS V14.01,2013-01-15 22:35:00,
2013-01-15 23:40:00,51.7,44.0,29.64,SSW,204,3.0,9.0,75,0.00,,,0.05,VWS V14.01,2013-01-15 22:40:00,
2013-01-15 23:45:00,52.2,43.8,29.64,South,184,12.0,14.0,73,0.00,,,0.05,VWS V14.01,2013-01-15 22:45:00,
2013-01-15 23:50:00,52.5,43.8,29.64,SSW,201,11.0,14.0,72,0.00,,,0.05,VWS V14.01,2013-01-15 22:50:00,
2013-01-15 23:55:00,52.1,44.1,29.64,SSW,202,8.0,8.0,74,0.00,,,0.05,VWS V14.01,2013-01-15 22:55:00,